TimeEST,TemperatureF,Dew PointF,Humidity,Sea Level PressureIn,VisibilityMPH,Wind Direction,Wind SpeedMPH,Gust SpeedMPH,PrecipitationIn,Events,Conditions,WindDirDegrees,DateUTC
12:54 AM,37.9,24.1,57,29.92,10.0,SW,12.7,20.7,N/A,,Clear,230,2013-11-14 05:54:00
1:54 AM,37.9,24.1,57,29.91,10.0,WSW,12.7,19.6,N/A,,Clear,240,2013-11-14 06:54:00
2:54 AM,37.9,23.0,55,29.91,10.0,SW,13.8,20.7,N/A,,Clear,230,2013-11-14 07:54:00
3:54 AM,37.0,23.0,57,29.92,10.0,SW,9.2,-,N/A,,Clear,220,2013-11-14 08:54:00
4:54 AM,37.0,21.9,54,29.91,10.0,SW,11.5,-,N/A,,Clear,230,2013-11-14 09:54:00
5:54 AM,35.1,21.9,59,29.91,10.0,SW,11.5,-,N/A,,Clear,220,2013-11-14 10:54:00
6:54 AM,36.0,23.0,59,29.92,10.0,SW,8.1,-,N/A,,Clear,220,2013-11-14 11:54:00
7:54 AM,35.1,23.0,61,29.92,10.0,SSW,8.1,-,N/A,,Clear,210,2013-11-14 12:54:00
8:54 AM,37.0,24.1,59,29.92,10.0,SW,9.2,-,N/A,,Clear,220,2013-11-14 13:54:00
9:54 AM,41.0,25.0,53,29.91,10.0,WSW,13.8,19.6,N/A,,Clear,250,2013-11-14 14:54:00
10:54 AM,43.0,26.1,51,29.90,10.0,WSW,11.5,21.9,N/A,,Clear,250,2013-11-14 15:54:00
11:54 AM,44.1,27.0,51,29.89,10.0,WSW,11.5,-,N/A,,Clear,240,2013-11-14 16:54:00
12:54 PM,46.0,27.0,47,29.86,10.0,WSW,11.5,-,N/A,,Clear,240,2013-11-14 17:54:00
1:54 PM,48.0,28.0,46,29.85,10.0,WSW,9.2,-,N/A,,Clear,250,2013-11-14 18:54:00
2:54 PM,48.9,28.9,46,29.84,10.0,WSW,8.1,-,N/A,,Clear,240,2013-11-14 19:54:00
3:54 PM,48.9,30.0,48,29.83,10.0,SW,5.8,-,N/A,,Clear,230,2013-11-14 20:54:00
4:54 PM,46.9,30.0,52,29.83,10.0,SW,3.5,-,N/A,,Clear,230,2013-11-14 21:54:00
5:54 PM,45.0,30.0,56,29.85,10.0,SW,5.8,-,N/A,,Clear,230,2013-11-14 22:54:00
6:54 PM,45.0,30.0,56,29.87,10.0,WSW,5.8,-,N/A,,Clear,240,2013-11-14 23:54:00
7:54 PM,43.0,30.0,60,29.88,10.0,WSW,6.9,-,N/A,,Clear,240,2013-11-15 00:54:00
8:54 PM,41.0,30.0,65,29.88,10.0,SW,9.2,-,N/A,,Partly Cloudy,230,2013-11-15 01:54:00
9:54 PM,39.9,30.0,68,29.87,10.0,SW,10.4,-,N/A,,Mostly Cloudy,220,2013-11-15 02:54:00
10:54 PM,41.0,30.0,65,29.88,10.0,WSW,6.9,-,N/A,,Overcast,250,2013-11-15 03:54:00
11:54 PM,41.0,30.9,67,29.87,10.0,WSW,10.4,-,N/A,,Overcast,240,2013-11-15 04:54:00